This is the latest recevied weather packets stored in our database for station/object KB8TTR. If no packets are shown the sender has not sent any weather packets the latest 10 day(s).
| Time | Temp. | Humidity | Pressure | Rain* | Wind** | Luminosity | Snow |
|---|---|---|---|---|---|---|---|
| 1787964945 | 19.44° C | 78% | 1022.6 hPa | 0 mm | - | 0 W/m² | - |
| 1787964640 | 19.44° C | 78% | 1022.4 hPa | 0 mm | - | 0 W/m² | - |
| 1787964339 | 19.44° C | 79% | 1022.3 hPa | 0 mm | - | 0 W/m² | - |
| 1787964039 | 19.44° C | 78% | 1022.5 hPa | 0 mm | - | 0 W/m² | - |
| 1787963739 | 20° C | 77% | 1022.6 hPa | 0 mm | - | 0 W/m² | - |
| 1787963434 | 20° C | 76% | 1022.6 hPa | 0 mm | - | 0 W/m² | - |
| 1787963130 | 20° C | 75% | 1022.3 hPa | 0 mm | - | 0 W/m² | - |
| 1787962828 | 20.56° C | 74% | 1022.4 hPa | 0 mm | - | 1 W/m² | - |
| 1787962527 | 20.56° C | 73% | 1022.3 hPa | 0 mm | - | 2 W/m² | - |
| 1787962226 | 20.56° C | 72% | 1022.3 hPa | 0 mm | - | 4 W/m² | - |
| 1787961926 | 21.11° C | 71% | 1022.3 hPa | 0 mm | - | 6 W/m² | - |
| 1787961623 | 21.11° C | 70% | 1022.1 hPa | 0 mm | - | 9 W/m² | - |
| 1787961314 | 21.67° C | 69% | 1022.2 hPa | 0 mm | - | 12 W/m² | - |
| 1787961010 | 21.67° C | 68% | 1022.2 hPa | 0 mm | - | 15 W/m² | - |
| 1787960704 | 21.67° C | 68% | 1022 hPa | 0 mm | - | 19 W/m² | - |
| 1787960403 | 22.22° C | 66% | 1022.3 hPa | 0 mm | - | 22 W/m² | - |
| 1787960097 | 22.78° C | 65% | 1022.1 hPa | 0 mm | - | 34 W/m² | - |
| 1787959792 | 22.78° C | 63% | 1022.2 hPa | 0 mm | - | 45 W/m² | - |
| 1787959488 | 22.78° C | 63% | 1022.1 hPa | 0 mm | - | 56 W/m² | - |
| 1787959182 | 22.78° C | 63% | 1022.1 hPa | 0 mm | - | 59 W/m² | - |
| 1787958878 | 22.78° C | 64% | 1022.2 hPa | 0 mm | - | 36 W/m² | - |
| 1787958578 | 22.78° C | 63% | 1022.3 hPa | 0 mm | - | 51 W/m² | - |
| 1787958273 | 22.78° C | 63% | 1022.3 hPa | 0 mm | - | 82 W/m² | - |
| 1787957972 | 22.78° C | 63% | 1022.3 hPa | 0 mm | - | 66 W/m² | - |
| 1787957667 | 22.78° C | 62% | 1022.4 hPa | 0 mm | - | 46 W/m² | - |
* Rain latest hour (hover to see other rain measurements)
** Current wind speed in m/s (hover to see current wind gust speed)